www.pogodaiklimat.ru

Погода и климат >> Архив погоды >> Боливия >> San Ignacio De Velasco


ПОГОДА в San Ignacio De Velasco

  • Прогноз погоды в San Ignacio De Velasco
  • Монитор погоды в San Ignacio De Velasco
  • Климат города

АРХИВ ПОГОДЫ в San Ignacio De Velasco

Время (UTC), дата Ветер
(напр.,м/с)
 
Видим.   Явления Облачность Т
(С)
Тd
(С)
f
(%)
Тe
(С)
Тes
(С)
Комфортность P
(гПа)
Po
(гПа)
Тmin
(С)
Tmax
(С)
R
(мм)
R24
(мм)
S
(см)
12 14.04 Ю 3 20 км 9/9 300 м
[Sc]
+19.2 +17.3 89 +21 +22 комфорт 1017.6 970.6 +19.0
15 14.04 Ю 5 20 км 8/8 450 м
[Sc]
+21.8 +19.1 85 +27 +29 душно 1019.8 972.8
18 14.04 ЮЗ 3 30 км 3/3 500 м
[Sc diur, vesp]
+26.5 +23.2 82 +36 +43 очень
душно
1016.8 970.0
21 14.04 Ю 3 30 км 4/4 500 м
[Sc diur, vesp]
+25.6 +20.5 73 +32 +32 очень
душно
1015.5 968.5 +27.5
12 15.04 Ю 3 20 км 10/10 400 м
[Sc]
+19.0 +17.4 90 +21 +21 комфорт 1020.5 973.5 +17.6
15 15.04 Ю 4 30 км 10/10 450 м
[Sc]
+21.5 +18.3 82 +26 +26 душно 1021.8 974.0
18 15.04 Ю 3 30 км 9/9 500 м
[Sc]
+25.0 +19.8 73 +31 +32 очень
душно
1019.3 972.5
21 15.04 ЮЗ 4 30 км 6/6 500 м
[Sc]
+23.8 +20.4 81 +29 +30 душно 1017.3 970.5 +25.8
12 16.04 Ю 3 20 км 6/6 300 м
[Sc]
+20.5 +19.0 91 +25 +26 комфорт 1018.5 971.5 +18.2
15 16.04 Ю 3 20 км 10/10 360 м
[Sc]
+24.0 +20.5 81 +30 +30 очень
душно
1018.6 971.6
18 16.04 штиль 0 30 км 10/6 450 м
[Sc diur, vesp Ac und]
+26.0 +21.8 78 +33 +36 очень
душно
1017.0 970.0
21 16.04 штиль 0 30 км 5/5 500 м
[Sc diur, vesp]
+26.0 +22.8 83 +35 +35 очень
душно
1014.5 968.0 +27.0
12 17.04 штиль 0 30 км ясно +20.0 +18.4 91 +23 +28 комфорт 1015.3 969.0 +16.8
15 17.04 штиль 0 30 км 4/4 450 м
[Sc]
+27.4 +21.2 69 +35 +48 очень
душно
1015.0 967.9
18 17.04 штиль 0 30 км 6/6 500 м
[Cu med, cong]
+30.0 +23.2 67 +40 +47 очень
душно
1014.1 967.1
21 17.04 штиль 0 30 км гроза без осадков 5/5 500 м
[Cb cap]
+26.5 +19.3 65 +32 +33 очень
душно
1013.5 966.5 +31.0
12 18.04 штиль 0 30 км ясно +21.6 +20.7 95 +27 +32 душно 1017.1 969.7 +18.0
15 18.04 Ю 3 30 км 4/4 500 м
[Sc diur, vesp]
+28.0 +22.0 70 +36 +44 очень
душно
1017.5 970.4
18 18.04 С 3 30 км 6/6 500 м
[Cu med, cong]
+31.0 +22.3 60 +40 +44 очень
душно
1015.3 967.8
21 18.04 штиль 0 30 км 4/4 500 м
[Cu med, cong]
+29.0 +22.2 67 +38 +38 очень
душно
1013.3 965.8 +32.0
12 19.04 штиль 0 30 км 4/0 2000 м
[Ac trans]
+23.0 +20.8 87 +30 +34 очень
душно
1015.8 969.0 +20.3
15 19.04 штиль 0 30 км 5/5 500 м
[Cu med, cong]
+29.0 +23.5 72 +39 +50 очень
душно
1018.2 969.8
18 19.04 штиль 0 8000 м гроза, ливневой дождь 9/9 500 м
[Cb cap]
+23.0 +22.3 96 +31 +33 очень
душно
1014.9 968.0 3
21 19.04 штиль 0 30 км 6/6 500 м
[Cb cap]
+23.6 +22.3 92 +31 +31 очень
душно
1013.3 966.3 +30.5
12 20.04 штиль 0 20 км в посл. час туман {дождь} 9/9 180 м
[Frnb]
+20.5 +20.3 99 +25 +25 комфорт 1016.0 969.0 +19.5 6
15 20.04 С 3 30 км 5/5 500 м
[Cu hum]
+26.6 +23.0 81 +36 +43 очень
душно
1015.9 969.0
21 20.04 штиль 0 30 км 3/3 500 м
[Cu med, cong]
+28.0 +24.0 79 +39 +40 очень
душно
1011.3 963.8 +29.0

 

Местоположение метеостанции San Ignacio De Velasco (Боливия): широта -16.38 долгота -60.96 высота над уровнем моря 413 м.

В архиве по умолчанию представлена погода в San Ignacio De Velasco за последнюю неделю. Архивные данные за месяц целиком и за предыдущие месяцы, начиная с января 2011 года, Вы можете получить, выбрав интересующий диапазон дат из раскрывающегося списка и нажав кнопку "Ввод!".


*Определитесь, кто Вы:
робот инопланетянин человек

Внимание! Время в таблицах - всемирное. Для получения местного времени необходимо прибавить поправку, которая в San Ignacio De Velasco равна -4 ч.

Смотрите также архив погоды в соседних городах и на ближайших метеорологических станциях:

Погода в Concepcion (Боливия) (115 км)
Погода в San Jose De Chiquitos (Боливия) (160 км)
Погода в San Javier (Боливия) (161 км)
Погода в Vila Bela da S Trind (Бразилия) (187 км)
Погода в Pontes E Lacerda (Бразилия) (213 км)
Погода в Ascencion De Guaray (Боливия) (241 км)
Погода в Robore (Боливия) (250 км)
Погода в Viru-Viru (Боливия) (269 км)
Погода в San Matias (Боливия) (275 км)
Погода в Santa Cruz (Боливия) (284 км)

Пояснения к столбцам:

Ветер - указаны скорость ветра в м/с - средняя за 10 мин, порывы в срок и между сроками (в фигурных скобках) и направление, откуда дует ветер: С - северный, СВ - северо-восточный, В - восточный, ЮВ - юго-восточный, Ю - южный, ЮЗ - юго-западный, З - западный, СЗ - северо-западный.
Видимость - горизонтальная дальность видимости в метрах или километрах. При видимости от 1 до 10 км при отсутствии осадков обычно наблюдается дымка, при ухудшении видимости до 1 км и менее - туман. В сухую погоду видимость может ухудшаться дымом, пылью или мглою.
Явления - указаны атмосферные явления, наблюдавшиеся в срок или в последний час перед сроком; фигурными скобками обозначены явления, наблюдавшиеся между сроками (за 1-3 часа до срока); квадратными скобками обозначены град или гололедные отложения с указанием их диаметра в мм.
Облачность - указаны через наклонную черту общая и нижняя облачность в баллах и высота нижней границы облаков в метрах; квадратными скобками обозначены формы облаков: Ci - перистые, Cs - перисто-слоистые, Cc - перисто-кучевые, Ac - высококучевые, As - высокослоистые, Sc - слоисто-кучевые, Ns - слоисто-дождевые, Cu - кучевые, Cb - кучево-дождевые. Подробнее классификацию облаков см. в Атласе облаков (PDF).
T - Температура воздуха - температура, измеренная на высоте 2 м над землей.
Td - Температура точки росы - температура, при понижении до которой содержащийся в воздухе водяной пар достигнет насыщения.
f - Относительная влажность воздуха - влажноcть воздуха, измеренная на высоте 2 м над землей.
Te - Эффективная температура - температура, которую ощущает одетый по сезону человек в тени. Характеристика душности погоды. При расчете учитывается влияние влажности воздуха и скорости ветра на теплоощущения человека.
Tes - Эффективная температура на солнце - температура, которую ощущает человек, с поправкой на солнечный нагрев. Характеристика знойности погоды. Зависит от высоты солнца над горизонтом, облачности и скорости ветра. Ночью, в пасмурную погоду, а также при ветре 12 м/с и более поправка равна нулю.
P - Атмосферное давление - приведенное к уровню моря атмосферное давление.
Po - Атмосферное давление - измеренное на уровне метеостанции атмосферное давление.
Tmin - Минимальная температура - минимум температуры воздуха на высоте 2 м над землей.
Tmax - Максимальная температура - максимум температуры воздуха на высоте 2 м над землей.
R - Количество осадков - Количество выпавших осадков за период времени, мм. При наведении курсора мыши на число - период времени, за который выпало указанное количество осадков.
R24 - Количество осадков - Количество выпавших осадков за 24 часа, мм.
S - Снежный покров - Высота снежного покрова, см. При наведении курсора мыши на число - состояние снежного покрова и степень покрытия местности в баллах.